Time,TemperatureF,DewpointF,PressureIn,WindDirection,WindDirectionDegrees,WindSpeedMPH,WindSpeedGustMPH,Humidity,HourlyPrecipIn,Conditions,Clouds,dailyrainin,SoftwareType,DateUTC
2013-04-17 00:02:00,33.0,23.0,-100.00,WNW,300,1.0,3.0,66,-99.99,,,-99.99,,2013-04-17 07:02:00,
2013-04-17 00:10:00,32.0,25.0,-100.00,NE,50,1.0,5.0,75,-99.99,,,-99.99,,2013-04-17 07:10:00,
2013-04-17 01:02:00,32.0,25.0,-100.00,NE,50,1.0,5.0,75,-99.99,,,-99.99,,2013-04-17 08:02:00,
2013-04-17 01:10:00,29.0,23.0,-100.00,NW,305,1.0,2.0,77,-99.99,,,-99.99,,2013-04-17 08:10:00,
2013-04-17 02:02:00,29.0,23.0,-100.00,NW,305,1.0,2.0,77,-99.99,,,-99.99,,2013-04-17 09:02:00,
2013-04-17 02:10:00,28.0,23.0,-100.00,West,270,1.0,3.0,81,-99.99,,,-99.99,,2013-04-17 09:10:00,
2013-04-17 03:02:00,28.0,23.0,-100.00,West,270,1.0,3.0,81,-99.99,,,-99.99,,2013-04-17 10:02:00,
2013-04-17 03:10:00,27.0,22.0,-100.00,WSW,250,1.0,3.0,81,-99.99,,,-99.99,,2013-04-17 10:10:00,
2013-04-17 04:02:00,27.0,22.0,-100.00,WSW,250,1.0,3.0,81,-99.99,,,-99.99,,2013-04-17 11:02:00,
2013-04-17 04:10:00,26.0,23.0,-100.00,North,5,1.0,3.0,88,-99.99,,,-99.99,,2013-04-17 11:10:00,
2013-04-17 05:02:00,26.0,23.0,-100.00,North,5,1.0,3.0,88,-99.99,,,-99.99,,2013-04-17 12:02:00,
2013-04-17 05:10:00,25.0,23.0,-100.00,NW,320,1.0,5.0,91,-99.99,,,-99.99,,2013-04-17 12:10:00,
2013-04-17 06:02:00,25.0,23.0,-100.00,NW,320,1.0,5.0,91,-99.99,,,-99.99,,2013-04-17 13:02:00,
2013-04-17 06:10:00,25.0,23.0,-100.00,WSW,255,1.0,3.0,91,-99.99,,,-99.99,,2013-04-17 13:10:00,
2013-04-17 07:02:00,25.0,23.0,-100.00,WSW,255,1.0,3.0,91,-99.99,,,-99.99,,2013-04-17 14:02:00,
2013-04-17 07:10:00,25.0,22.0,-100.00,North,10,1.0,6.0,88,-99.99,,,-99.99,,2013-04-17 14:10:00,
2013-04-17 08:02:00,25.0,22.0,-100.00,North,10,1.0,6.0,88,-99.99,,,-99.99,,2013-04-17 15:02:00,
2013-04-17 08:10:00,30.0,26.0,-100.00,East,100,1.0,2.0,84,-99.99,,,-99.99,,2013-04-17 15:10:00,
2013-04-17 09:03:00,30.0,26.0,-100.00,East,100,1.0,2.0,84,-99.99,,,-99.99,,2013-04-17 16:03:00,
2013-04-17 09:10:00,41.0,27.0,-100.00,North,10,1.0,2.0,57,-99.99,,,-99.99,,2013-04-17 16:10:00,
2013-04-17 10:02:00,41.0,27.0,-100.00,North,10,1.0,2.0,57,-99.99,,,-99.99,,2013-04-17 17:02:00,
2013-04-17 10:10:00,48.0,26.0,-100.00,SE,140,2.0,6.0,41,-99.99,,,-99.99,,2013-04-17 17:10:00,
2013-04-17 11:02:00,48.0,26.0,-100.00,SE,140,2.0,6.0,41,-99.99,,,-99.99,,2013-04-17 18:02:00,
2013-04-17 11:10:00,53.0,27.0,-100.00,SSE,160,1.0,3.0,36,-99.99,,,-99.99,,2013-04-17 18:10:00,
2013-04-17 12:02:00,53.0,27.0,-100.00,SSE,160,1.0,3.0,36,-99.99,,,-99.99,,2013-04-17 19:02:00,
2013-04-17 12:10:00,55.0,28.0,-100.00,SE,130,1.0,7.0,35,-99.99,,,-99.99,,2013-04-17 19:10:00,
2013-04-17 13:02:00,55.0,28.0,-100.00,SE,130,1.0,7.0,35,-99.99,,,-99.99,,2013-04-17 20:02:00,
2013-04-17 13:10:00,56.0,26.0,-100.00,West,280,1.0,6.0,31,-99.99,,,-99.99,,2013-04-17 20:10:00,
2013-04-17 14:02:00,56.0,26.0,-100.00,West,280,1.0,6.0,31,-99.99,,,-99.99,,2013-04-17 21:02:00,
2013-04-17 14:10:00,55.0,25.0,-100.00,ESE,110,5.0,9.0,31,-99.99,,,-99.99,,2013-04-17 21:10:00,
2013-04-17 15:02:00,55.0,25.0,-100.00,ESE,110,5.0,9.0,31,-99.99,,,-99.99,,2013-04-17 22:02:00,
2013-04-17 15:10:00,56.0,28.0,-100.00,NW,320,5.0,12.0,33,-99.99,,,-99.99,,2013-04-17 22:10:00,
2013-04-17 16:02:00,56.0,28.0,-100.00,NW,320,5.0,12.0,33,-99.99,,,-99.99,,2013-04-17 23:02:00,
2013-04-17 16:10:00,55.0,25.0,-100.00,West,275,5.0,16.0,31,-99.99,,,-99.99,,2013-04-17 23:10:00,
2013-04-17 17:02:00,55.0,25.0,-100.00,West,275,5.0,16.0,31,-99.99,,,-99.99,,2013-04-18 00:02:00,
2013-04-17 17:10:00,55.0,28.0,-100.00,South,190,2.0,10.0,35,-99.99,,,-99.99,,2013-04-18 00:10:00,
2013-04-17 18:02:00,55.0,28.0,-100.00,South,190,2.0,10.0,35,-99.99,,,-99.99,,2013-04-18 01:02:00,
2013-04-17 20:02:00,49.0,31.0,-100.00,South,180,3.0,6.0,49,-99.99,,,-99.99,,2013-04-18 03:02:00,
2013-04-17 21:03:00,44.0,33.0,-100.00,South,175,3.0,6.0,65,-99.99,,,-99.99,,2013-04-18 04:03:00,
2013-04-17 22:02:00,44.0,34.0,-100.00,SSE,160,3.0,6.0,67,-99.99,,,-99.99,,2013-04-18 05:02:00,
2013-04-17 23:10:00,38.0,31.0,-100.00,ESE,110,1.0,3.0,75,-99.99,,,-99.99,,2013-04-18 06:10:00,